M I D A S
Marine Information and Data Acquisition System
Tripno 1822 of the Zeeleeuw from 2009-12-08 08:14:36 to 2009-12-08 17:35:47
Back to CruiseResearch ActivitiesStationsMapUnderway DataData graphs

EquipmentUnitsComments
TimeDGPSUTC
LatitudeDGPSDM.mWGS84
LongitudeDGPSDM.mWGS84
SpeedMeteo Stationm/sRelative wind speed
DirectionMeteo StationdegRelative wind direction
TemperatureMeteo Stationdeg CelciusAir temperature
PressureMeteo StationPaAtmospheric pressure
HumidityMeteo Station%Relative humidity
Missing or incorrect values are displayed as -999
Metereological data collected by the RV Zeeleeuw from 2009-12-08 08:37:15 to 2009-12-08 17:41:43
                                                                                    Next 1000 lines
Time Latitude Longitude Speed Direction Temperature Pressure Humidity
2009-12-08 08:37:25 51°13.661 2°55.956 9.8 80 9.1 100920 43
2009-12-08 08:37:30 51°13.662 2°55.954 7.6 35 9.1 100920 43
2009-12-08 08:37:34 51°13.663 2°55.952 9.2 76 9.1 100920 43
2009-12-08 08:37:39 51°13.664 2°55.949 9 34 9.1 100920 43
2009-12-08 08:37:44 51°13.665 2°55.945 9.7 24 9.1 100930 41
2009-12-08 08:37:49 51°13.666 2°55.941 10.6 35 9.1 100930 41
2009-12-08 08:37:54 51°13.667 2°55.935 10.5 25 9.1 100920 42
2009-12-08 08:38:01 51°13.67 2°55.926 8.8 32 9.1 100920 42
2009-12-08 08:38:06 51°13.671 2°55.92 6.1 81 9.1 100920 42
2009-12-08 08:38:12 51°13.673 2°55.911 8 33 9.1 100920 42
2009-12-08 08:38:17 51°13.675 2°55.903 7.1 80 9.1 100920 42
2009-12-08 08:38:22 51°13.677 2°55.895 7.8 36 9.1 100920 42
2009-12-08 08:38:27 51°13.679 2°55.888 7.5 76 9.1 100920 42
2009-12-08 08:38:32 51°13.68 2°55.88 9.2 34 9.1 100920 42
2009-12-08 08:38:37 51°13.682 2°55.872 3.5 76 9.1 100920 43
2009-12-08 08:38:42 51°13.684 2°55.864 4.6 39 9.1 100920 43
2009-12-08 08:38:47 51°13.685 2°55.857 9 20 9.1 100920 43
2009-12-08 08:38:52 51°13.687 2°55.849 6.7 38 9.1 100920 43
2009-12-08 08:38:57 51°13.689 2°55.842 7.8 78 9.2 100930 40
2009-12-08 08:39:02 51°13.69 2°55.835 7.1 33 9.2 100930 40
2009-12-08 08:39:07 51°13.692 2°55.827 8.1 25 9.2 100920 40
2009-12-08 08:39:12 51°13.693 2°55.82 7 35 9.2 100920 40
2009-12-08 08:39:17 51°13.695 2°55.813 7.9 82 9.2 100930 40
2009-12-08 08:39:22 51°13.696 2°55.806 5.6 37 9.2 100930 40
2009-12-08 08:39:27 51°13.697 2°55.799 4.4 78 9.2 100920 40
2009-12-08 08:39:32 51°13.698 2°55.792 3.8 30 9.2 100920 40
2009-12-08 08:39:37 51°13.698 2°55.785 5.5 76 9.2 100930 43
2009-12-08 08:39:42 51°13.699 2°55.779 3.5 32 9.2 100930 43
2009-12-08 08:39:46 51°13.699 2°55.774 3.7 22 9.2 100920 41
2009-12-08 08:39:51 51°13.7 2°55.768 5.7 31 9.2 100920 41
2009-12-08 08:39:57 51°13.701 2°55.761 6 79 9.2 100930 39
2009-12-08 08:40:02 51°13.702 2°55.758 3.9 34 9.2 100930 39
2009-12-08 08:40:07 51°13.703 2°55.757 5.1 76 9.2 100930 43
2009-12-08 08:40:12 51°13.704 2°55.756 2.6 34 9.2 100930 43
2009-12-08 08:40:17 51°13.706 2°55.756 2.6 283 9.2 100930 40
2009-12-08 08:40:22 51°13.707 2°55.756 4.3 260 9.2 100930 40
2009-12-08 08:40:26 51°13.708 2°55.756 4.8 280 9.2 100930 42
2009-12-08 08:40:31 51°13.709 2°55.755 4.8 268 9.2 100930 42
2009-12-08 08:40:36 51°13.709 2°55.754 4.8 264 9.2 100920 37
2009-12-08 08:40:41 51°13.709 2°55.752 4 264 9.2 100920 37
2009-12-08 08:40:46 51°13.709 2°55.75 3.5 263 9.2 100920 42
2009-12-08 08:40:51 51°13.708 2°55.747 5.1 273 9.2 100920 42
2009-12-08 08:40:56 51°13.707 2°55.745 4.2 264 9.2 100930 40
2009-12-08 08:41:01 51°13.707 2°55.743 4.3 32 9.2 100930 40
2009-12-08 08:41:05 51°13.707 2°55.741 3.8 288 9.1 100930 40
2009-12-08 08:41:10 51°13.707 2°55.739 3.1 257 9.1 100930 40
2009-12-08 08:41:15 51°13.709 2°55.739 2.6 285 9.2 100940 40
2009-12-08 08:41:20 51°13.71 2°55.738 3.3 32 9.2 100940 40
2009-12-08 08:41:25 51°13.713 2°55.737 5.3 280 9.2 100920 42
2009-12-08 08:41:30 51°13.716 2°55.736 5.3 240 9.2 100920 42
2009-12-08 08:41:34 51°13.719 2°55.735 4.6 284 9.1 100920 39
2009-12-08 08:41:39 51°13.722 2°55.733 3.5 322 9.1 100920 39
2009-12-08 08:41:44 51°13.726 2°55.73 4.3 317 9.1 100920 43
2009-12-08 08:41:48 51°13.729 2°55.727 4.1 32 9.1 100920 43
2009-12-08 08:41:54 51°13.734 2°55.722 5.6 286 9.1 100920 43
2009-12-08 08:41:58 51°13.738 2°55.718 7.8 322 9.1 100920 43
2009-12-08 08:42:03 51°13.743 2°55.712 7.2 284 9.1 100920 43
2009-12-08 08:42:08 51°13.749 2°55.705 6.9 321 9.1 100920 43
2009-12-08 08:42:13 51°13.756 2°55.698 9.7 283 9.1 100920 43
2009-12-08 08:42:18 51°13.763 2°55.69 7.5 325 9.1 100920 43
2009-12-08 08:42:23 51°13.771 2°55.682 7.4 279 9.1 100910 42
2009-12-08 08:42:28 51°13.78 2°55.674 8.9 324 9.1 100910 42
2009-12-08 08:42:33 51°13.788 2°55.667 6.9 281 9.1 100910 42
2009-12-08 08:42:38 51°13.798 2°55.659 6.9 33 9.1 100910 42
2009-12-08 08:42:43 51°13.807 2°55.652 7.8 320 9.1 100910 41
2009-12-08 08:42:48 51°13.817 2°55.645 11 317 9.1 100910 41
2009-12-08 08:42:53 51°13.827 2°55.638 7 281 9.1 100900 40
2009-12-08 08:42:58 51°13.838 2°55.631 5.2 316 9.1 100900 40
2009-12-08 08:43:03 51°13.848 2°55.624 6.2 279 9.1 100920 41
2009-12-08 08:43:08 51°13.859 2°55.617 8.4 31 9.1 100920 41
2009-12-08 08:43:13 51°13.869 2°55.61 9.9 280 9.1 100900 41
2009-12-08 08:43:18 51°13.88 2°55.603 4.7 327 9.1 100900 41
2009-12-08 08:43:23 51°13.891 2°55.596 8.6 281 9.1 100910 40
2009-12-08 08:43:29 51°13.905 2°55.588 9.3 316 9.1 100910 40
2009-12-08 08:43:33 51°13.914 2°55.582 7.6 283 9.1 100900 40
2009-12-08 08:43:38 51°13.925 2°55.576 8.8 318 9.1 100900 40
2009-12-08 08:43:43 51°13.936 2°55.569 7 328 9.1 100900 41
2009-12-08 08:43:49 51°13.949 2°55.561 9.6 32 9.1 100900 41
2009-12-08 08:43:53 51°13.958 2°55.555 6.8 281 9.1 100910 41
2009-12-08 08:43:58 51°13.97 2°55.549 9.7 328 9.1 100910 41
2009-12-08 08:44:03 51°13.981 2°55.542 12.6 278 9.1 100910 42
2009-12-08 08:44:08 51°13.992 2°55.536 11.3 317 9.1 100910 42
2009-12-08 08:44:13 51°14.003 2°55.529 10.4 281 9.1 100890 42
2009-12-08 08:44:18 51°14.014 2°55.522 8.2 319 9.1 100890 42
2009-12-08 08:44:23 51°14.026 2°55.515 9.6 281 9.1 100910 42
2009-12-08 08:44:28 51°14.037 2°55.508 11.7 320 9.1 100910 42
2009-12-08 08:44:33 51°14.048 2°55.5 10 281 9.1 100900 41
2009-12-08 08:44:38 51°14.059 2°55.492 12.3 317 9.1 100900 41
2009-12-08 08:44:43 51°14.07 2°55.485 13.2 316 9.1 100900 41
2009-12-08 08:44:48 51°14.082 2°55.478 12.4 315 9.1 100900 41
2009-12-08 08:44:53 51°14.093 2°55.47 12 318 9.1 100910 42
2009-12-08 08:44:58 51°14.104 2°55.462 12 33 9.1 100910 42
2009-12-08 08:45:03 51°14.115 2°55.454 14 282 9.1 100890 41
2009-12-08 08:45:08 51°14.126 2°55.445 15.3 37 9.1 100890 41
2009-12-08 08:45:13 51°14.137 2°55.436 16.2 281 9.1 100870 41
2009-12-08 08:45:18 51°14.147 2°55.427 15 35 9.1 100870 41
2009-12-08 08:45:23 51°14.158 2°55.417 16 279 9.1 100880 42
2009-12-08 08:45:29 51°14.171 2°55.406 15.8 317 9.1 100880 42
2009-12-08 08:45:33 51°14.179 2°55.397 15.6 281 9.1 100880 41
2009-12-08 08:45:38 51°14.188 2°55.386 16.3 319 9.1 100880 41
2009-12-08 08:45:43 51°14.198 2°55.373 17.4 317 9.1 100900 41
2009-12-08 08:45:48 51°14.207 2°55.361 16.6 319 9.1 100900 41
2009-12-08 08:45:53 51°14.216 2°55.347 14.4 286 9.1 100850 41
2009-12-08 08:45:58 51°14.225 2°55.333 16.6 316 9.1 100850 41
2009-12-08 08:46:03 51°14.233 2°55.319 14.5 280 9.1 100860 42
2009-12-08 08:46:08 51°14.242 2°55.303 15.8 323 9.1 100860 42
2009-12-08 08:46:13 51°14.251 2°55.287 16.8 284 9.1 100890 42
2009-12-08 08:46:18 51°14.26 2°55.27 17.1 322 9.1 100890 42
2009-12-08 08:46:23 51°14.268 2°55.252 14.4 325 9.1 100870 42
2009-12-08 08:46:29 51°14.28 2°55.232 14.4 319 9.1 100870 42
2009-12-08 08:46:33 51°14.287 2°55.218 18.1 283 9.1 100890 42
2009-12-08 08:46:38 51°14.296 2°55.2 18.2 326 9.1 100890 42
2009-12-08 08:46:43 51°14.305 2°55.181 18.4 323 9.1 100870 42
2009-12-08 08:46:48 51°14.313 2°55.161 17.3 323 9.1 100870 42
2009-12-08 08:46:53 51°14.322 2°55.142 18.1 322 9.1 100880 41
2009-12-08 08:46:58 51°14.331 2°55.123 18.6 323 9.1 100880 41
2009-12-08 08:47:03 51°14.34 2°55.104 17.1 284 9.1 100850 41
2009-12-08 08:47:08 51°14.349 2°55.084 16.6 321 9.1 100850 41
2009-12-08 08:47:13 51°14.358 2°55.064 18.1 279 9.1 100850 41
2009-12-08 08:47:18 51°14.367 2°55.045 16.5 318 9.1 100850 41
2009-12-08 08:47:23 51°14.376 2°55.025 16.1 280 9.1 100910 42
2009-12-08 08:47:28 51°14.385 2°55.006 17.8 320 9.1 100910 42
2009-12-08 08:47:33 51°14.394 2°54.986 17.2 285 9.1 100910 42
2009-12-08 08:47:38 51°14.404 2°54.968 18.6 317 9.1 100910 42
2009-12-08 08:47:43 51°14.415 2°54.95 15.5 319 9.1 100900 42
2009-12-08 08:47:48 51°14.425 2°54.934 18.2 316 9.1 100900 42
2009-12-08 08:47:53 51°14.436 2°54.918 15.5 282 9.1 100900 42
2009-12-08 08:47:58 51°14.448 2°54.902 18.3 37 9.1 100900 42
2009-12-08 08:48:03 51°14.459 2°54.888 17.7 284 9.1 100900 41
2009-12-08 08:48:09 51°14.474 2°54.873 16.9 34 9.1 100900 41
2009-12-08 08:48:14 51°14.486 2°54.861 16.9 22 9.1 100900 42
2009-12-08 08:48:18 51°14.496 2°54.853 15 38 9.1 100900 42
2009-12-08 08:48:23 51°14.509 2°54.843 14 285 9.1 100910 41
2009-12-08 08:48:29 51°14.525 2°54.833 15.2 31 9.1 100910 41
2009-12-08 08:48:33 51°14.535 2°54.824 15.3 284 9.1 100890 41
2009-12-08 08:48:38 51°14.549 2°54.816 15.4 234 9.1 100890 41
2009-12-08 08:48:43 51°14.563 2°54.808 17.3 24 9.1 100880 41
2009-12-08 08:48:48 51°14.577 2°54.799 15.1 34 9.1 100880 41
2009-12-08 08:48:53 51°14.59 2°54.789 16.4 280 9.1 100880 42
2009-12-08 08:48:58 51°14.603 2°54.778 13.9 32 9.1 100880 42
2009-12-08 08:49:03 51°14.616 2°54.767 18 283 9.1 100870 42
2009-12-08 08:49:08 51°14.628 2°54.754 16.4 35 9.1 100870 42
2009-12-08 08:49:13 51°14.64 2°54.741 16.7 282 9.1 100870 42
2009-12-08 08:49:18 51°14.652 2°54.728 17.1 35 9.1 100870 42
2009-12-08 08:49:23 51°14.663 2°54.714 16.1 282 9.2 100880 43
2009-12-08 08:49:28 51°14.675 2°54.701 15.5 35 9.2 100880 43
2009-12-08 08:49:33 51°14.688 2°54.687 16.3 282 9.2 100870 42
2009-12-08 08:49:38 51°14.7 2°54.675 17.2 36 9.2 100870 42
2009-12-08 08:49:44 51°14.715 2°54.661 16.7 26 9.2 100880 43
2009-12-08 08:49:49 51°14.728 2°54.65 16.5 31 9.2 100880 43
2009-12-08 08:49:54 51°14.74 2°54.637 14 23 9.2 100870 43
2009-12-08 08:49:58 51°14.75 2°54.628 15.6 35 9.2 100870 43
2009-12-08 08:50:03 51°14.762 2°54.616 16.9 283 9.2 100880 43
2009-12-08 08:50:09 51°14.778 2°54.602 17.7 36 9.2 100880 43
2009-12-08 08:50:13 51°14.788 2°54.593 16 282 9.1 100880 43
2009-12-08 08:50:18 51°14.801 2°54.58 16.9 35 9.1 100880 43
2009-12-08 08:50:22 51°14.811 2°54.572 17 282 9.1 100880 42
2009-12-08 08:50:28 51°14.826 2°54.557 17.4 36 9.1 100870 42
2009-12-08 08:50:33 51°14.838 2°54.545 16.8 281 9.1 100870 42
2009-12-08 08:50:38 51°14.851 2°54.533 16.7 34 9.1 100870 42
2009-12-08 08:50:43 51°14.864 2°54.521 15.6 283 9.1 100870 42
2009-12-08 08:50:48 51°14.877 2°54.509 16.1 34 9.1 100870 43
2009-12-08 08:50:53 51°14.89 2°54.497 15.3 283 9.1 100870 43
2009-12-08 08:50:58 51°14.902 2°54.486 13.9 38 9.1 100870 42
2009-12-08 08:51:03 51°14.915 2°54.474 14.2 283 9.1 100870 42
2009-12-08 08:51:08 51°14.928 2°54.462 14.4 35 9.1 100870 43
2009-12-08 08:51:14 51°14.943 2°54.449 16.5 282 9.1 100870 43
2009-12-08 08:51:18 51°14.953 2°54.441 15.8 34 9.1 100870 42
2009-12-08 08:51:23 51°14.965 2°54.428 14.4 281 9.1 100870 42
2009-12-08 08:51:28 51°14.978 2°54.417 16.4 34 9.1 100870 42
2009-12-08 08:51:33 51°14.99 2°54.406 17 281 9.1 100870 42
2009-12-08 08:51:38 51°15.003 2°54.394 16.5 36 9.2 100880 42
2009-12-08 08:51:43 51°15.016 2°54.382 14.3 282 9.2 100880 42
2009-12-08 08:51:48 51°15.029 2°54.371 14.1 38 9.2 100890 43
2009-12-08 08:51:53 51°15.041 2°54.358 17.7 282 9.2 100890 43
2009-12-08 08:51:58 51°15.054 2°54.346 16.7 35 9.2 100860 42
2009-12-08 08:52:03 51°15.067 2°54.335 15.1 280 9.2 100860 42
2009-12-08 08:52:08 51°15.08 2°54.322 15.6 33 9.2 100890 43
2009-12-08 08:52:13 51°15.093 2°54.311 18.7 283 9.2 100890 43
2009-12-08 08:52:18 51°15.105 2°54.3 15.3 33 9.2 100890 43
2009-12-08 08:52:24 51°15.121 2°54.288 14.2 283 9.2 100880 42
2009-12-08 08:52:29 51°15.133 2°54.279 14.1 36 9.2 100870 43
2009-12-08 08:52:35 51°15.147 2°54.266 15.3 280 9.2 100870 43
2009-12-08 08:52:41 51°15.162 2°54.254 16.7 34 9.2 100870 43
2009-12-08 08:52:46 51°15.174 2°54.243 12.8 26 9.1 100880 42
2009-12-08 08:52:51 51°15.186 2°54.233 15.2 36 9.2 100900 42
2009-12-08 08:52:56 51°15.198 2°54.222 17 283 9.2 100900 42
2009-12-08 08:53:01 51°15.209 2°54.213 16.8 33 9.2 100900 42
2009-12-08 08:53:06 51°15.221 2°54.201 14.7 278 9.2 100880 43
2009-12-08 08:53:12 51°15.235 2°54.188 17.6 36 9.2 100880 42
2009-12-08 08:53:17 51°15.248 2°54.177 16.7 284 9.2 100880 42
2009-12-08 08:53:22 51°15.26 2°54.165 18.3 35 9.2 100880 42
2009-12-08 08:53:26 51°15.27 2°54.156 15.4 281 9.1 100890 43
2009-12-08 08:53:31 51°15.282 2°54.144 15.7 32 9.1 100880 42
2009-12-08 08:53:36 51°15.295 2°54.131 17.7 284 9.1 100880 42
2009-12-08 08:53:41 51°15.307 2°54.119 16.1 31 9.1 100870 43
2009-12-08 08:53:46 51°15.32 2°54.107 16.2 283 9.1 100870 43
2009-12-08 08:53:50 51°15.33 2°54.097 14.6 315 9.1 100870 43
2009-12-08 08:53:55 51°15.343 2°54.084 17 284 9.1 100860 42
2009-12-08 08:54:00 51°15.356 2°54.071 16.2 34 9.1 100870 42
2009-12-08 08:54:05 51°15.369 2°54.059 15.4 283 9.1 100870 42
2009-12-08 08:54:10 51°15.382 2°54.047 16.4 38 9.1 100870 42
2009-12-08 08:54:14 51°15.392 2°54.037 15.5 280 9.1 100870 42
2009-12-08 08:54:20 51°15.407 2°54.023 15.4 34 9.1 100870 42
2009-12-08 08:54:25 51°15.419 2°54.01 14.9 281 9.1 100880 42
2009-12-08 08:54:30 51°15.431 2°53.997 15.6 38 9.1 100880 42
2009-12-08 08:54:35 51°15.443 2°53.985 16.8 279 9.1 100880 42
2009-12-08 08:54:40 51°15.456 2°53.972 17.3 33 9.1 100880 42
2009-12-08 08:54:45 51°15.468 2°53.96 17 283 9.1 100880 42
2009-12-08 08:54:49 51°15.479 2°53.951 18.5 36 9.1 100870 42
2009-12-08 08:54:54 51°15.491 2°53.938 15.5 281 9.1 100870 42
2009-12-08 08:54:59 51°15.504 2°53.926 14.9 36 9.1 100870 42
2009-12-08 08:55:04 51°15.516 2°53.913 15.1 283 9.1 100870 42
2009-12-08 08:55:09 51°15.528 2°53.901 14.8 34 9.1 100870 42
2009-12-08 08:55:14 51°15.541 2°53.89 17 282 9.1 100870 42
2009-12-08 08:55:18 51°15.551 2°53.88 17.8 37 9.1 100870 42
2009-12-08 08:55:23 51°15.563 2°53.868 16.8 283 9.1 100870 43
2009-12-08 08:55:28 51°15.576 2°53.856 18.1 35 9.1 100870 43
2009-12-08 08:55:33 51°15.588 2°53.845 15.2 282 9.1 100880 43
2009-12-08 08:55:39 51°15.602 2°53.831 17.3 32 9.1 100870 42
2009-12-08 08:55:45 51°15.617 2°53.818 17.2 279 9.1 100870 42
2009-12-08 08:55:50 51°15.629 2°53.805 17.6 37 9.1 100870 42
2009-12-08 08:55:54 51°15.639 2°53.796 17.4 283 9.1 100860 41
2009-12-08 08:55:59 51°15.651 2°53.785 17.4 34 9.1 100880 42
2009-12-08 08:56:04 51°15.663 2°53.772 17.9 282 9.1 100880 42
2009-12-08 08:56:09 51°15.675 2°53.76 18.5 34 9.1 100880 42
2009-12-08 08:56:14 51°15.688 2°53.748 17.7 283 9.1 100870 42
2009-12-08 08:56:19 51°15.7 2°53.736 15.7 37 9.1 100870 42
2009-12-08 08:56:23 51°15.71 2°53.726 16.8 282 9.1 100870 42
2009-12-08 08:56:28 51°15.723 2°53.713 15.4 33 9.1 100870 42
2009-12-08 08:56:33 51°15.735 2°53.701 17.6 283 9.1 100870 42
2009-12-08 08:56:38 51°15.748 2°53.688 15.9 37 9.1 100870 42
2009-12-08 08:56:42 51°15.758 2°53.679 15.7 285 9.1 100850 43
2009-12-08 08:56:48 51°15.773 2°53.664 14.1 34 9.1 100870 42
2009-12-08 08:56:54 51°15.788 2°53.651 14.4 284 9.1 100870 42
2009-12-08 08:56:58 51°15.797 2°53.641 15.5 33 9.1 100860 42
2009-12-08 08:57:03 51°15.809 2°53.629 17.7 281 9.1 100860 42
2009-12-08 08:57:08 51°15.822 2°53.616 15.6 33 9.1 100890 43
2009-12-08 08:57:13 51°15.834 2°53.604 16.3 283 9.1 100890 43
2009-12-08 08:57:18 51°15.846 2°53.593 17.2 35 9.1 100870 43
2009-12-08 08:57:23 51°15.859 2°53.581 15.5 284 9.1 100870 43
2009-12-08 08:57:28 51°15.871 2°53.569 18.4 33 9.2 100880 43
2009-12-08 08:57:33 51°15.884 2°53.557 15.4 285 9.2 100880 43
2009-12-08 08:57:38 51°15.897 2°53.546 16 36 9.2 100880 43
2009-12-08 08:57:43 51°15.909 2°53.533 16.3 283 9.2 100880 43
2009-12-08 08:57:48 51°15.922 2°53.522 16 35 9.2 100880 43
2009-12-08 08:57:54 51°15.936 2°53.508 18.1 283 9.1 100880 42
2009-12-08 08:57:59 51°15.948 2°53.498 16.9 32 9.1 100870 43
2009-12-08 08:58:04 51°15.96 2°53.484 17.6 280 9.1 100870 43
2009-12-08 08:58:09 51°15.972 2°53.473 17.7 33 9.1 100870 43
2009-12-08 08:58:13 51°15.983 2°53.464 18 282 9.1 100870 42
2009-12-08 08:58:18 51°15.994 2°53.451 17 34 9.1 100870 42
2009-12-08 08:58:23 51°16.007 2°53.439 17.7 283 9.2 100910 43
2009-12-08 08:58:28 51°16.019 2°53.427 16.8 37 9.2 100910 43
2009-12-08 08:58:33 51°16.032 2°53.415 16.6 282 9.2 100870 42
2009-12-08 08:58:38 51°16.045 2°53.402 15.4 34 9.2 100870 42
2009-12-08 08:58:42 51°16.055 2°53.393 16 283 9.2 100880 43
2009-12-08 08:58:48 51°16.069 2°53.377 17.1 33 9.2 100880 42
2009-12-08 08:58:53 51°16.082 2°53.364 16.3 280 9.2 100880 42
2009-12-08 08:58:58 51°16.095 2°53.352 15 32 9.2 100880 43
2009-12-08 08:59:03 51°16.108 2°53.34 16.3 282 9.2 100880 43
2009-12-08 08:59:08 51°16.121 2°53.329 15.5 36 9.2 100880 43
2009-12-08 08:59:13 51°16.135 2°53.319 17.4 282 9.2 100880 43
2009-12-08 08:59:18 51°16.147 2°53.307 14.7 34 9.2 100880 43
2009-12-08 08:59:23 51°16.161 2°53.297 15.3 285 9.2 100870 42
2009-12-08 08:59:28 51°16.174 2°53.285 16.4 34 9.2 100870 43
2009-12-08 08:59:33 51°16.187 2°53.274 14.7 283 9.2 100870 43
2009-12-08 08:59:38 51°16.201 2°53.264 16.9 37 9.2 100870 43
2009-12-08 08:59:42 51°16.212 2°53.255 16.1 285 9.2 100880 43
2009-12-08 08:59:48 51°16.228 2°53.244 15.1 34 9.2 100880 42
2009-12-08 08:59:53 51°16.241 2°53.235 14.9 283 9.2 100880 42
2009-12-08 08:59:59 51°16.257 2°53.224 15.2 36 9.2 100880 42
2009-12-08 09:00:03 51°16.268 2°53.216 16.6 280 9.2 100890 43
2009-12-08 09:00:09 51°16.284 2°53.205 15.6 36 9.2 100890 43
2009-12-08 09:00:13 51°16.294 2°53.195 17.9 280 9.2 100890 42
2009-12-08 09:00:18 51°16.308 2°53.186 16.2 37 9.2 100880 43
2009-12-08 09:00:23 51°16.321 2°53.177 17.9 283 9.2 100880 43
2009-12-08 09:00:28 51°16.334 2°53.166 14 35 9.2 100870 42
2009-12-08 09:00:33 51°16.348 2°53.156 15.9 280 9.2 100870 42
2009-12-08 09:00:38 51°16.362 2°53.146 14.4 37 9.2 100890 42
2009-12-08 09:00:43 51°16.375 2°53.136 16.8 282 9.2 100890 42
2009-12-08 09:00:48 51°16.389 2°53.127 17 31 9.2 100860 43
2009-12-08 09:00:53 51°16.403 2°53.117 16.3 285 9.2 100860 43
2009-12-08 09:00:58 51°16.416 2°53.107 16.7 35 9.2 100860 43
2009-12-08 09:01:03 51°16.43 2°53.098 16.2 282 9.2 100880 43
2009-12-08 09:01:08 51°16.443 2°53.088 17.1 33 9.2 100880 43
2009-12-08 09:01:13 51°16.457 2°53.079 15.8 284 9.1 100870 42
2009-12-08 09:01:18 51°16.471 2°53.07 19.5 34 9.1 100870 42
2009-12-08 09:01:22 51°16.482 2°53.062 15.8 279 9.2 100870 42
2009-12-08 09:01:28 51°16.498 2°53.052 15.6 37 9.2 100880 42
2009-12-08 09:01:33 51°16.512 2°53.041 15.7 280 9.2 100880 42
2009-12-08 09:01:38 51°16.525 2°53.031 16.3 36 9.1 100870 43
2009-12-08 09:01:43 51°16.539 2°53.022 15.7 24 9.1 100870 43
2009-12-08 09:01:48 51°16.553 2°53.012 17.4 35 9.2 100890 42
2009-12-08 09:01:53 51°16.567 2°53.002 16.6 280 9.2 100890 42
2009-12-08 09:01:58 51°16.58 2°52.992 16.9 36 9.2 100890 42
2009-12-08 09:02:03 51°16.594 2°52.982 17.3 283 9.2 100890 43
2009-12-08 09:02:08 51°16.608 2°52.973 17.7 32 9.2 100880 43
2009-12-08 09:02:13 51°16.622 2°52.962 16.8 285 9.2 100880 43
2009-12-08 09:02:18 51°16.635 2°52.953 16.4 32 9.2 100880 43
2009-12-08 09:02:22 51°16.646 2°52.944 16.5 280 9.2 100890 42
2009-12-08 09:02:28 51°16.662 2°52.933 18.4 34 9.2 100870 42
2009-12-08 09:02:33 51°16.676 2°52.923 16.9 281 9.2 100870 42
2009-12-08 09:02:38 51°16.69 2°52.914 15.7 33 9.2 100880 42
2009-12-08 09:02:42 51°16.701 2°52.906 16.8 280 9.2 100880 42
2009-12-08 09:02:48 51°16.717 2°52.895 17.5 38 9.2 100880 43
2009-12-08 09:02:53 51°16.73 2°52.885 16.7 280 9.2 100880 43
2009-12-08 09:02:58 51°16.743 2°52.875 16.9 35 9.2 100870 42
2009-12-08 09:03:03 51°16.757 2°52.865 15 279 9.2 100870 42
2009-12-08 09:03:08 51°16.77 2°52.855 16.6 36 9.2 100880 43
2009-12-08 09:03:13 51°16.784 2°52.847 16.3 283 9.2 100880 43
2009-12-08 09:03:18 51°16.798 2°52.836 16.2 35 9.2 100880 43
2009-12-08 09:03:23 51°16.811 2°52.827 16.6 283 9.2 100880 43
2009-12-08 09:03:29 51°16.828 2°52.817 17.6 34 9.2 100880 42
2009-12-08 09:03:34 51°16.84 2°52.808 16.1 284 9.2 100880 42
2009-12-08 09:03:40 51°16.856 2°52.798 18.1 34 9.2 100880 42
2009-12-08 09:03:45 51°16.869 2°52.789 14.3 285 9.2 100870 43
2009-12-08 09:03:50 51°16.882 2°52.78 12.9 33 9.2 100880 41
2009-12-08 09:03:55 51°16.895 2°52.772 15.3 280 9.2 100880 41
2009-12-08 09:04:00 51°16.908 2°52.763 14.9 32 9.2 100880 41
2009-12-08 09:04:05 51°16.921 2°52.753 15.7 286 9.2 100910 43
2009-12-08 09:04:10 51°16.934 2°52.744 14.8 34 9.2 100890 43
2009-12-08 09:04:14 51°16.945 2°52.738 14.7 284 9.2 100890 43
2009-12-08 09:04:19 51°16.959 2°52.729 16.2 35 9.2 100890 43
2009-12-08 09:04:24 51°16.973 2°52.722 16.4 278 9.2 100880 42
2009-12-08 09:04:29 51°16.987 2°52.715 17.2 233 9.2 100880 42
2009-12-08 09:04:34 51°17 2°52.707 15.2 283 9.2 100880 42
2009-12-08 09:04:39 51°17.014 2°52.701 16.6 33 9.2 100880 42
2009-12-08 09:04:44 51°17.028 2°52.693 13.8 282 9.2 100880 42
2009-12-08 09:04:49 51°17.042 2°52.686 14.5 35 9.2 100880 43
2009-12-08 09:04:54 51°17.057 2°52.678 17.1 281 9.2 100880 43
2009-12-08 09:04:58 51°17.068 2°52.672 17.3 234 9.2 100880 43
2009-12-08 09:05:03 51°17.082 2°52.665 16.9 281 9.2 100880 43
2009-12-08 09:05:08 51°17.097 2°52.658 17.3 33 9.2 100880 43
2009-12-08 09:05:13 51°17.111 2°52.65 17 285 9.2 100880 43
2009-12-08 09:05:18 51°17.125 2°52.643 17.4 33 9.2 100880 42
2009-12-08 09:05:23 51°17.14 2°52.636 15.9 284 9.2 100880 42
2009-12-08 09:05:28 51°17.154 2°52.629 14.4 31 9.2 100870 42
2009-12-08 09:05:33 51°17.169 2°52.624 16.2 280 9.2 100870 42
2009-12-08 09:05:38 51°17.184 2°52.616 15.4 32 9.2 100880 42
2009-12-08 09:05:43 51°17.198 2°52.61 17.4 281 9.2 100880 42
2009-12-08 09:05:48 51°17.213 2°52.604 14.7 32 9.2 100900 43
2009-12-08 09:05:53 51°17.228 2°52.599 13.8 284 9.2 100900 43
2009-12-08 09:05:58 51°17.243 2°52.593 15.2 33 9.2 100900 43
2009-12-08 09:06:03 51°17.257 2°52.588 15.3 280 9.2 100890 43
2009-12-08 09:06:09 51°17.274 2°52.582 16.4 236 9.2 100880 43
2009-12-08 09:06:13 51°17.286 2°52.576 16.2 283 9.2 100880 43
2009-12-08 09:06:18 51°17.301 2°52.573 16.1 238 9.2 100880 42
2009-12-08 09:06:23 51°17.316 2°52.568 15.1 282 9.2 100880 42
2009-12-08 09:06:28 51°17.33 2°52.563 15.8 236 9.2 100900 42
2009-12-08 09:06:33 51°17.345 2°52.558 16.4 283 9.2 100900 42
2009-12-08 09:06:38 51°17.36 2°52.553 16.3 33 9.2 100880 43
2009-12-08 09:06:43 51°17.375 2°52.549 15.6 284 9.2 100880 43
2009-12-08 09:06:48 51°17.39 2°52.545 15.3 33 9.2 100890 43
2009-12-08 09:06:53 51°17.405 2°52.544 13.9 284 9.2 100890 43
2009-12-08 09:06:58 51°17.42 2°52.54 14.7 242 9.2 100890 42
2009-12-08 09:07:02 51°17.431 2°52.539 15.7 285 9.2 100890 42
2009-12-08 09:07:08 51°17.449 2°52.538 17.2 242 9.2 100890 42
2009-12-08 09:07:13 51°17.464 2°52.536 14.5 284 9.2 100880 43
2009-12-08 09:07:18 51°17.479 2°52.536 15.1 237 9.2 100890 42
2009-12-08 09:07:23 51°17.495 2°52.537 14.6 283 9.2 100890 42
2009-12-08 09:07:28 51°17.51 2°52.536 14.1 238 9.2 100900 43
2009-12-08 09:07:33 51°17.525 2°52.536 15.4 284 9.2 100900 43
2009-12-08 09:07:38 51°17.541 2°52.536 14.7 239 9.2 100900 43
2009-12-08 09:07:43 51°17.556 2°52.535 16.1 283 9.2 100900 43
2009-12-08 09:07:48 51°17.572 2°52.537 17.4 238 9.2 100890 42
2009-12-08 09:07:53 51°17.587 2°52.535 14 283 9.2 100890 42
2009-12-08 09:07:58 51°17.602 2°52.536 13.9 239 9.2 100890 42
2009-12-08 09:08:02 51°17.614 2°52.538 16.2 281 9.2 100890 43
2009-12-08 09:08:08 51°17.633 2°52.539 14.6 239 9.2 100890 43
2009-12-08 09:08:13 51°17.648 2°52.537 14.4 284 9.2 100890 43
2009-12-08 09:08:18 51°17.663 2°52.539 15.5 239 9.2 100890 43
2009-12-08 09:08:23 51°17.678 2°52.539 14 284 9.2 100890 43
2009-12-08 09:08:28 51°17.694 2°52.539 14 30 9.2 100900 42
2009-12-08 09:08:33 51°17.709 2°52.54 16.1 283 9.2 100900 42
2009-12-08 09:08:38 51°17.724 2°52.54 15.3 239 9.2 100900 43
2009-12-08 09:08:43 51°17.74 2°52.541 14.7 279 9.2 100900 43
2009-12-08 09:08:48 51°17.755 2°52.543 16.5 242 9.2 100900 43
2009-12-08 09:08:53 51°17.77 2°52.542 15.9 282 9.2 100890 43
2009-12-08 09:08:58 51°17.785 2°52.544 15.8 240 9.2 100890 43
2009-12-08 09:09:03 51°17.8 2°52.544 14.6 285 9.2 100890 43
2009-12-08 09:09:08 51°17.816 2°52.546 15.1 242 9.2 100890 43
2009-12-08 09:09:13 51°17.831 2°52.548 13.4 284 9.2 100900 42
2009-12-08 09:09:19 51°17.848 2°52.55 14.2 31 9.2 100890 42
2009-12-08 09:09:24 51°17.863 2°52.551 13.9 282 9.2 100890 42
2009-12-08 09:09:29 51°17.877 2°52.55 16.7 237 9.2 100900 43
2009-12-08 09:09:34 51°17.892 2°52.551 16 284 9.2 100900 43
2009-12-08 09:09:39 51°17.907 2°52.55 14.9 239 9.2 100910 43
2009-12-08 09:09:44 51°17.922 2°52.55 16.5 279 9.2 100910 43
2009-12-08 09:09:49 51°17.937 2°52.549 18.1 237 9.2 100910 43
2009-12-08 09:09:53 51°17.949 2°52.548 15.3 285 9.2 100900 42
2009-12-08 09:09:58 51°17.964 2°52.549 16.1 33 9.2 100880 43
2009-12-08 09:10:03 51°17.979 2°52.548 16.6 281 9.2 100880 43
2009-12-08 09:10:08 51°17.994 2°52.548 16.5 237 9.2 100880 43
2009-12-08 09:10:13 51°18.009 2°52.547 15.8 284 9.2 100890 43
2009-12-08 09:10:18 51°18.024 2°52.548 13.8 239 9.2 100890 43
2009-12-08 09:10:22 51°18.036 2°52.548 13.2 284 9.2 100890 42
2009-12-08 09:10:28 51°18.054 2°52.55 14.5 241 9.2 100890 43
2009-12-08 09:10:33 51°18.069 2°52.549 14.3 280 9.2 100890 43
2009-12-08 09:10:38 51°18.083 2°52.55 15.5 236 9.2 100870 43
2009-12-08 09:10:43 51°18.098 2°52.551 15.1 280 9.2 100870 43
2009-12-08 09:10:49 51°18.115 2°52.552 14.7 238 9.2 100900 43
2009-12-08 09:10:53 51°18.127 2°52.552 12.1 283 9.2 100900 43
2009-12-08 09:10:58 51°18.141 2°52.554 15.6 241 9.2 100910 42
2009-12-08 09:11:03 51°18.156 2°52.552 14.2 283 9.2 100910 42
2009-12-08 09:11:08 51°18.171 2°52.555 17.8 241 9.2 100880 43
2009-12-08 09:11:13 51°18.185 2°52.551 16.2 280 9.2 100880 43
2009-12-08 09:11:18 51°18.2 2°52.554 15.3 242 9.2 100880 43
2009-12-08 09:11:22 51°18.212 2°52.551 14.2 282 9.2 100910 42
2009-12-08 09:11:28 51°18.23 2°52.552 15 238 9.2 100910 42
2009-12-08 09:11:33 51°18.245 2°52.55 17.2 280 9.2 100900 42
2009-12-08 09:11:38 51°18.261 2°52.552 17.9 240 9.2 100900 44
2009-12-08 09:11:43 51°18.276 2°52.549 15.6 285 9.2 100900 44
2009-12-08 09:11:48 51°18.291 2°52.551 16.6 240 9.2 100890 42
2009-12-08 09:11:53 51°18.306 2°52.55 16.9 285 9.2 100890 42
2009-12-08 09:11:58 51°18.321 2°52.55 15.7 241 9.2 100890 43
2009-12-08 09:12:03 51°18.336 2°52.551 15.7 281 9.2 100890 43
2009-12-08 09:12:08 51°18.351 2°52.549 16.9 241 9.2 100890 42
2009-12-08 09:12:13 51°18.366 2°52.551 15 282 9.2 100890 42
2009-12-08 09:12:18 51°18.381 2°52.55 16.1 243 9.2 100890 42
2009-12-08 09:12:22 51°18.393 2°52.549 15.9 283 9.2 100890 43
2009-12-08 09:12:28 51°18.411 2°52.549 16.5 245 9.2 100880 43
2009-12-08 09:12:33 51°18.426 2°52.548 13.8 285 9.2 100880 43
2009-12-08 09:12:38 51°18.441 2°52.551 16.8 242 9.2 100870 43
2009-12-08 09:12:43 51°18.456 2°52.547 15.8 23 9.2 100870 43
2009-12-08 09:12:48 51°18.472 2°52.55 16.3 244 9.2 100880 43
2009-12-08 09:12:53 51°18.487 2°52.547 14.7 281 9.2 100880 43
2009-12-08 09:12:58 51°18.502 2°52.549 16.5 237 9.2 100900 43
2009-12-08 09:13:03 51°18.518 2°52.547 15.4 280 9.2 100900 43
2009-12-08 09:13:08 51°18.533 2°52.548 17.3 240 9.2 100910 43
2009-12-08 09:13:13 51°18.548 2°52.546 15.4 281 9.2 100910 43
2009-12-08 09:13:18 51°18.564 2°52.547 15.4 239 9.2 100910 43
2009-12-08 09:13:23 51°18.579 2°52.546 16.8 281 9.2 100900 43
2009-12-08 09:13:28 51°18.594 2°52.546 15.3 240 9.2 100900 42
2009-12-08 09:13:33 51°18.61 2°52.544 12.9 283 9.2 100900 42
2009-12-08 09:13:38 51°18.625 2°52.546 13.8 242 9.2 100890 43
2009-12-08 09:13:44 51°18.643 2°52.545 13.7 283 9.2 100890 43
2009-12-08 09:13:49 51°18.658 2°52.545 13.4 244 9.2 100890 43
2009-12-08 09:13:53 51°18.67 2°52.545 14.9 284 9.2 100900 43
2009-12-08 09:13:58 51°18.685 2°52.545 14.1 239 9.2 100900 44
2009-12-08 09:14:03 51°18.7 2°52.543 14.8 287 9.2 100900 44
2009-12-08 09:14:08 51°18.715 2°52.542 14.5 239 9.2 100900 43
2009-12-08 09:14:13 51°18.73 2°52.543 13.6 280 9.2 100900 43
2009-12-08 09:14:18 51°18.745 2°52.542 13.3 234 9.2 100890 44
2009-12-08 09:14:22 51°18.757 2°52.543 15.1 284 9.2 100890 44
2009-12-08 09:14:28 51°18.775 2°52.542 14.8 238 9.3 100910 43
2009-12-08 09:14:33 51°18.79 2°52.542 15.7 286 9.3 100910 43
2009-12-08 09:14:38 51°18.805 2°52.543 15.7 241 9.3 100910 43
2009-12-08 09:14:43 51°18.82 2°52.542 15 284 9.3 100910 44
2009-12-08 09:14:48 51°18.835 2°52.543 14.7 241 9.3 100900 43
2009-12-08 09:14:53 51°18.85 2°52.543 16 282 9.3 100900 43
2009-12-08 09:14:58 51°18.865 2°52.542 14.5 238 9.2 100880 43
2009-12-08 09:15:03 51°18.88 2°52.543 17 280 9.2 100880 43
2009-12-08 09:15:08 51°18.895 2°52.542 15.7 239 9.2 100890 43
2009-12-08 09:15:13 51°18.911 2°52.543 17.4 281 9.2 100890 43
2009-12-08 09:15:18 51°18.926 2°52.542 18.1 243 9.2 100890 43
2009-12-08 09:15:23 51°18.941 2°52.542 15.9 281 9.2 100900 43
2009-12-08 09:15:29 51°18.959 2°52.54 15.5 236 9.2 100910 43
2009-12-08 09:15:33 51°18.972 2°52.54 15.7 281 9.2 100910 43
2009-12-08 09:15:38 51°18.987 2°52.538 13.5 236 9.2 100890 44
2009-12-08 09:15:43 51°19.002 2°52.539 14.9 285 9.2 100890 44
2009-12-08 09:15:48 51°19.018 2°52.538 15.5 237 9.2 100890 44
2009-12-08 09:15:53 51°19.033 2°52.536 15.3 280 9.2 100900 42
2009-12-08 09:15:58 51°19.048 2°52.537 15.1 237 9.2 100900 44
2009-12-08 09:16:03 51°19.064 2°52.536 15.5 281 9.2 100900 44
2009-12-08 09:16:08 51°19.08 2°52.535 15.5 239 9.2 100900 42
2009-12-08 09:16:13 51°19.095 2°52.535 14.7 280 9.2 100900 42
2009-12-08 09:16:18 51°19.11 2°52.535 15.3 240 9.2 100900 43
2009-12-08 09:16:23 51°19.125 2°52.534 13.6 284 9.2 100900 43
2009-12-08 09:16:28 51°19.14 2°52.536 16.1 238 9.2 100890 43
2009-12-08 09:16:33 51°19.155 2°52.533 11.9 279 9.2 100890 43
2009-12-08 09:16:38 51°19.17 2°52.533 15.8 239 9.2 100920 43
2009-12-08 09:16:43 51°19.185 2°52.534 16.2 282 9.2 100920 43
2009-12-08 09:16:48 51°19.2 2°52.531 12 236 9.2 100910 42
2009-12-08 09:16:53 51°19.214 2°52.533 14.1 285 9.2 100910 42
2009-12-08 09:16:58 51°19.229 2°52.53 13.7 31 9.2 100910 44
2009-12-08 09:17:03 51°19.244 2°52.532 14.2 282 9.2 100910 44
2009-12-08 09:17:08 51°19.259 2°52.532 16 241 9.2 100910 43
2009-12-08 09:17:13 51°19.274 2°52.531 15.1 284 9.2 100910 43
2009-12-08 09:17:18 51°19.289 2°52.532 13.7 32 9.2 100910 43
2009-12-08 09:17:23 51°19.304 2°52.532 14.6 283 9.2 100900 44
2009-12-08 09:17:28 51°19.319 2°52.532 14.7 238 9.2 100910 42
2009-12-08 09:17:33 51°19.335 2°52.532 15 282 9.2 100910 42
2009-12-08 09:17:38 51°19.35 2°52.53 14.4 32 9.2 100910 42
2009-12-08 09:17:42 51°19.362 2°52.53 13.9 19 9.2 100910 42
2009-12-08 09:17:48 51°19.38 2°52.529 14.7 240 9.2 100910 42
2009-12-08 09:17:53 51°19.396 2°52.529 13.8 285 9.2 100900 42
2009-12-08 09:17:58 51°19.411 2°52.529 12.6 236 9.2 100910 43
2009-12-08 09:18:03 51°19.426 2°52.527 13.9 283 9.2 100910 43
2009-12-08 09:18:08 51°19.441 2°52.527 13.3 239 9.2 100910 42
2009-12-08 09:18:13 51°19.457 2°52.526 14.6 283 9.2 100910 42
2009-12-08 09:18:18 51°19.472 2°52.525 15.7 242 9.2 100920 44
2009-12-08 09:18:23 51°19.487 2°52.527 12.6 283 9.2 100920 44
2009-12-08 09:18:29 51°19.505 2°52.528 14.1 242 9.2 100920 44
2009-12-08 09:18:34 51°19.519 2°52.527 13.7 280 9.2 100920 44
2009-12-08 09:18:40 51°19.537 2°52.526 14.2 238 9.2 100900 42
2009-12-08 09:18:45 51°19.552 2°52.526 11.9 283 9.2 100900 42
2009-12-08 09:18:50 51°19.567 2°52.526 14.5 237 9.2 100900 42
2009-12-08 09:18:54 51°19.578 2°52.524 13.7 280 9.2 100890 43
2009-12-08 09:18:59 51°19.594 2°52.524 15.2 241 9.2 100920 42
2009-12-08 09:19:04 51°19.608 2°52.523 13.9 281 9.2 100920 42
2009-12-08 09:19:09 51°19.624 2°52.523 14.8 239 9.2 100930 42
2009-12-08 09:19:14 51°19.639 2°52.521 13.5 279 9.2 100930 42
2009-12-08 09:19:18 51°19.651 2°52.521 15.4 242 9.2 100930 42
2009-12-08 09:19:23 51°19.666 2°52.522 15.8 282 9.2 100920 44
2009-12-08 09:19:28 51°19.682 2°52.52 12.3 234 9.2 100920 44
2009-12-08 09:19:33 51°19.697 2°52.521 15.5 282 9.2 100920 44
2009-12-08 09:19:38 51°19.712 2°52.519 13.1 241 9.2 100910 42
2009-12-08 09:19:43 51°19.727 2°52.52 13.9 281 9.2 100910 42
2009-12-08 09:19:48 51°19.742 2°52.518 14.9 242 9.2 100890 41
2009-12-08 09:19:53 51°19.757 2°52.518 12 280 9.2 100890 41
2009-12-08 09:19:58 51°19.772 2°52.518 13.1 243 9.2 100890 41
2009-12-08 09:20:02 51°19.784 2°52.517 12.3 285 9.2 100900 44
2009-12-08 09:20:08 51°19.803 2°52.518 12.4 243 9.2 100900 44
2009-12-08 09:20:13 51°19.817 2°52.516 13.2 287 9.2 100920 42
2009-12-08 09:20:18 51°19.832 2°52.518 14.2 30 9.2 100900 42
2009-12-08 09:20:23 51°19.847 2°52.514 13.9 283 9.2 100900 42
2009-12-08 09:20:28 51°19.863 2°52.516 13.3 240 9.2 100900 42
2009-12-08 09:20:33 51°19.878 2°52.513 14.7 286 9.2 100930 42
2009-12-08 09:20:38 51°19.893 2°52.512 14.3 30 9.3 100920 44
2009-12-08 09:20:43 51°19.908 2°52.513 14.5 280 9.3 100920 44
2009-12-08 09:20:48 51°19.923 2°52.511 11.8 239 9.3 100920 44
2009-12-08 09:20:53 51°19.938 2°52.512 15.6 278 9.3 100920 44
2009-12-08 09:20:58 51°19.953 2°52.51 14.6 238 9.3 100920 43
2009-12-08 09:21:03 51°19.968 2°52.51 16.7 284 9.3 100920 43
2009-12-08 09:21:09 51°19.986 2°52.509 15.1 31 9.3 100920 43
2009-12-08 09:21:13 51°19.997 2°52.506 16.8 284 9.3 100920 42
2009-12-08 09:21:18 51°20.01 2°52.5 16.5 235 9.3 100920 42
2009-12-08 09:21:23 51°20.024 2°52.494 16.2 280 9.3 100900 43
2009-12-08 09:21:29 51°20.039 2°52.483 17 37 9.3 100910 42
2009-12-08 09:21:34 51°20.053 2°52.476 16.3 285 9.3 100910 42
2009-12-08 09:21:38 51°20.063 2°52.467 13.6 31 9.3 100910 42
2009-12-08 09:21:43 51°20.076 2°52.459 13.5 19 9.3 100890 43
2009-12-08 09:21:49 51°20.092 2°52.448 16 34 9.3 100920 43
2009-12-08 09:21:54 51°20.104 2°52.44 13.5 280 9.3 100920 43
2009-12-08 09:22:00 51°20.118 2°52.426 15.8 34 9.3 100890 44
2009-12-08 09:22:05 51°20.13 2°52.415 15.1 282 9.3 100890 44
2009-12-08 09:22:10 51°20.141 2°52.403 15.5 317 9.3 100900 42
2009-12-08 09:22:15 51°20.151 2°52.388 15.5 285 9.3 100900 42
2009-12-08 09:22:20 51°20.162 2°52.374 15.8 317 9.3 100920 44
2009-12-08 09:22:25 51°20.172 2°52.36 19 282 9.3 100920 44
2009-12-08 09:22:30 51°20.182 2°52.345 17.3 318 9.3 100930 43
2009-12-08 09:22:36 51°20.193 2°52.327 15.6 281 9.3 100930 43
2009-12-08 09:22:41 51°20.202 2°52.312 18.5 317 9.3 100920 43
2009-12-08 09:22:46 51°20.212 2°52.297 16.5 284 9.3 100920 43
2009-12-08 09:22:51 51°20.221 2°52.281 18.2 321 9.3 100920 43
2009-12-08 09:22:56 51°20.23 2°52.265 16.5 285 9.3 100920 43
2009-12-08 09:23:01 51°20.24 2°52.249 15.7 319 9.3 100920 43
2009-12-08 09:23:06 51°20.249 2°52.232 16 286 9.3 100920 43
2009-12-08 09:23:10 51°20.256 2°52.219 15.3 318 9.3 100920 43
2009-12-08 09:23:15 51°20.266 2°52.202 17.7 281 9.3 100930 43
2009-12-08 09:23:20 51°20.275 2°52.185 16.3 320 9.2 100910 43
2009-12-08 09:23:25 51°20.284 2°52.169 16.6 280 9.2 100910 43
2009-12-08 09:23:30 51°20.293 2°52.152 15.6 321 9.2 100930 42
2009-12-08 09:23:35 51°20.302 2°52.135 17.3 282 9.2 100930 42
2009-12-08 09:23:40 51°20.311 2°52.118 17.1 321 9.2 100930 42
2009-12-08 09:23:45 51°20.32 2°52.101 15.9 285 9.2 100920 43
2009-12-08 09:23:49 51°20.328 2°52.086 16.6 319 9.3 100930 42
2009-12-08 09:23:54 51°20.337 2°52.07 16.5 282 9.3 100930 42
2009-12-08 09:23:59 51°20.345 2°52.053 15.9 319 9.3 100930 42
2009-12-08 09:24:05 51°20.356 2°52.033 14.8 281 9.3 100920 43
2009-12-08 09:24:10 51°20.365 2°52.015 18 318 9.3 100930 43
2009-12-08 09:24:15 51°20.375 2°51.998 17.4 280 9.3 100930 43
2009-12-08 09:24:20 51°20.384 2°51.981 15.1 316 9.3 100930 43
2009-12-08 09:24:24 51°20.391 2°51.966 15.2 281 9.3 100930 42
2009-12-08 09:24:29 51°20.401 2°51.948 15.4 317 9.3 100910 43
2009-12-08 09:24:34 51°20.411 2°51.931 14.9 285 9.3 100910 43
2009-12-08 09:24:39 51°20.42 2°51.913 16.5 32 9.3 100920 43
2009-12-08 09:24:44 51°20.43 2°51.896 16.5 283 9.3 100920 43
2009-12-08 09:24:49 51°20.441 2°51.879 14.8 33 9.3 100930 44
2009-12-08 09:24:54 51°20.451 2°51.863 16.6 281 9.3 100930 44
2009-12-08 09:24:58 51°20.46 2°51.85 14.1 317 9.3 100920 42
2009-12-08 09:25:03 51°20.471 2°51.834 14.9 284 9.3 100920 42
2009-12-08 09:25:08 51°20.482 2°51.818 14.2 316 9.3 100920 42
2009-12-08 09:25:13 51°20.493 2°51.802 14.9 283 9.3 100910 42
2009-12-08 09:25:18 51°20.504 2°51.787 13.4 33 9.3 100920 43
2009-12-08 09:25:23 51°20.515 2°51.771 14.8 284 9.3 100920 43
2009-12-08 09:25:28 51°20.526 2°51.756 15.2 37 9.3 100910 44
2009-12-08 09:25:33 51°20.538 2°51.741 15.7 283 9.3 100910 44
2009-12-08 09:25:38 51°20.549 2°51.725 13.5 315 9.4 100930 43
2009-12-08 09:25:43 51°20.56 2°51.711 17.1 282 9.4 100930 43
2009-12-08 09:25:48 51°20.571 2°51.697 17.1 36 9.4 100930 43
2009-12-08 09:25:53 51°20.582 2°51.683 16.3 280 9.4 100930 43
2009-12-08 09:25:58 51°20.593 2°51.668 16.2 37 9.4 100930 43
2009-12-08 09:26:03 51°20.604 2°51.653 17.5 285 9.4 100930 43
2009-12-08 09:26:08 51°20.615 2°51.639 13.6 316 9.4 100940 43
2009-12-08 09:26:13 51°20.627 2°51.624 12.3 279 9.4 100940 43
2009-12-08 09:26:18 51°20.639 2°51.612 14.8 39 9.4 100920 43
2009-12-08 09:26:23 51°20.65 2°51.598 15.6 278 9.4 100920 43
2009-12-08 09:26:29 51°20.665 2°51.583 15.2 34 9.4 100920 44
2009-12-08 09:26:33 51°20.676 2°51.573 15.4 284 9.4 100920 44
2009-12-08 09:26:38 51°20.688 2°51.56 15.2 36 9.4 100940 44
2009-12-08 09:26:43 51°20.701 2°51.549 15 21 9.4 100940 44
2009-12-08 09:26:48 51°20.714 2°51.537 16.4 37 9.4 100940 44
2009-12-08 09:26:53 51°20.727 2°51.525 14.2 284 9.4 100920 44
2009-12-08 09:26:58 51°20.741 2°51.516 16 34 9.4 100920 44
2009-12-08 09:27:03 51°20.754 2°51.504 16.8 280 9.4 100920 44
2009-12-08 09:27:08 51°20.767 2°51.494 17.1 34 9.4 100920 44
2009-12-08 09:27:13 51°20.781 2°51.485 14.7 283 9.4 100930 44
2009-12-08 09:27:18 51°20.795 2°51.475 17.1 36 9.4 100920 43
2009-12-08 09:27:22 51°20.805 2°51.467 16.1 279 9.4 100920 43
2009-12-08 09:27:28 51°20.822 2°51.456 16.7 34 9.4 100920 44
2009-12-08 09:27:33 51°20.835 2°51.447 14.9 283 9.4 100920 44
2009-12-08 09:27:38 51°20.848 2°51.437 15.6 36 9.4 100910 43
2009-12-08 09:27:43 51°20.861 2°51.426 16.3 283 9.4 100910 43
2009-12-08 09:27:48 51°20.875 2°51.417 16.2 34 9.4 100910 43
2009-12-08 09:27:53 51°20.888 2°51.407 15.7 285 9.4 100910 43
2009-12-08 09:27:58 51°20.901 2°51.396 14.1 38 9.4 100910 43
2009-12-08 09:28:02 51°20.912 2°51.389 17.9 283 9.4 100930 42
2009-12-08 09:28:08 51°20.928 2°51.377 15.5 33 9.4 100930 43
2009-12-08 09:28:13 51°20.942 2°51.369 15.1 283 9.4 100930 43
2009-12-08 09:28:18 51°20.956 2°51.362 13.2 32 9.4 100920 43
2009-12-08 09:28:23 51°20.97 2°51.356 16 278 9.4 100920 43
2009-12-08 09:28:28 51°20.984 2°51.349 14 234 9.4 100920 42
2009-12-08 09:28:33 51°20.998 2°51.344 15.6 280 9.4 100920 42
2009-12-08 09:28:38 51°21.012 2°51.338 16 237 9.5 100920 44
2009-12-08 09:28:43 51°21.026 2°51.334 12 25 9.5 100920 44
2009-12-08 09:28:48 51°21.04 2°51.329 14.9 33 9.4 100930 43
2009-12-08 09:28:53 51°21.055 2°51.325 14.1 282 9.4 100930 43
2009-12-08 09:28:58 51°21.069 2°51.321 14.8 33 9.4 100930 42
2009-12-08 09:29:03 51°21.084 2°51.317 13.2 283 9.4 100930 42
2009-12-08 09:29:08 51°21.098 2°51.312 11.7 235 9.4 100930 42
2009-12-08 09:29:13 51°21.112 2°51.309 14.4 278 9.5 100930 44
2009-12-08 09:29:18 51°21.127 2°51.305 15 238 9.5 100930 43
2009-12-08 09:29:23 51°21.142 2°51.301 15.6 286 9.5 100930 43
2009-12-08 09:29:28 51°21.156 2°51.297 15.6 236 9.5 100930 43
2009-12-08 09:29:33 51°21.171 2°51.293 17.2 281 9.5 100930 42
2009-12-08 09:29:38 51°21.186 2°51.29 17 241 9.5 100920 43
2009-12-08 09:29:43 51°21.2 2°51.286 13.9 287 9.5 100920 43
2009-12-08 09:29:48 51°21.215 2°51.283 17.3 240 9.5 100920 43
2009-12-08 09:29:53 51°21.23 2°51.28 14.3 278 9.4 100940 43
2009-12-08 09:29:58 51°21.244 2°51.275 14.7 240 9.4 100920 43
2009-12-08 09:30:02 51°21.256 2°51.272 12.8 282 9.4 100920 43
2009-12-08 09:30:08 51°21.274 2°51.267 12.5 238 9.4 100940 44
2009-12-08 09:30:13 51°21.288 2°51.265 15.1 281 9.4 100940 44
2009-12-08 09:30:18 51°21.302 2°51.263 15.5 243 9.4 100930 42
2009-12-08 09:30:23 51°21.316 2°51.262 14.9 279 9.4 100930 42
2009-12-08 09:30:28 51°21.331 2°51.259 14.8 241 9.4 100930 43
2009-12-08 09:30:33 51°21.346 2°51.258 13.8 285 9.4 100930 43
2009-12-08 09:30:38 51°21.36 2°51.257 13 240 9.4 100930 43
2009-12-08 09:30:43 51°21.375 2°51.256 14.1 283 9.4 100930 43
2009-12-08 09:30:48 51°21.39 2°51.255 15.4 244 9.5 100920 44
2009-12-08 09:30:53 51°21.405 2°51.255 14.8 282 9.5 100920 44
2009-12-08 09:30:58 51°21.42 2°51.254 15.3 247 9.4 100940 44
2009-12-08 09:31:03 51°21.434 2°51.254 12 283 9.4 100940 44
2009-12-08 09:31:08 51°21.449 2°51.255 11.9 242 9.4 100940 43
2009-12-08 09:31:13 51°21.463 2°51.254 14.7 283 9.4 100940 43
2009-12-08 09:31:18 51°21.478 2°51.255 13.9 245 9.4 100930 44
2009-12-08 09:31:23 51°21.492 2°51.257 13.1 284 9.4 100930 44
2009-12-08 09:31:28 51°21.507 2°51.256 14.1 238 9.4 100930 44
2009-12-08 09:31:33 51°21.521 2°51.258 13.1 282 9.4 100950 43
2009-12-08 09:31:38 51°21.535 2°51.258 12.5 31 9.4 100940 43
2009-12-08 09:31:43 51°21.55 2°51.258 13.9 277 9.4 100940 43
2009-12-08 09:31:48 51°21.564 2°51.259 13.6 241 9.4 100940 43
2009-12-08 09:31:53 51°21.579 2°51.259 15.6 280 9.4 100950 44
2009-12-08 09:31:58 51°21.593 2°51.26 13.3 239 9.4 100950 42
2009-12-08 09:32:03 51°21.607 2°51.26 13 284 9.4 100950 42
2009-12-08 09:32:08 51°21.622 2°51.259 14.9 240 9.4 100950 42
2009-12-08 09:32:13 51°21.636 2°51.26 13.6 280 9.5 100940 44
2009-12-08 09:32:18 51°21.651 2°51.259 15.9 237 9.5 100940 44
2009-12-08 09:32:22 51°21.663 2°51.258 13.6 284 9.5 100930 44
2009-12-08 09:32:28 51°21.68 2°51.259 15.5 241 9.5 100940 43
2009-12-08 09:32:33 51°21.695 2°51.259 14.2 284 9.5 100940 43
2009-12-08 09:32:38 51°21.71 2°51.26 13.7 242 9.4 100950 44
2009-12-08 09:32:43 51°21.724 2°51.26 14.7 286 9.4 100950 44
2009-12-08 09:32:48 51°21.738 2°51.261 15.2 241 9.4 100930 42
2009-12-08 09:32:53 51°21.753 2°51.261 15 279 9.4 100930 42
2009-12-08 09:32:58 51°21.767 2°51.26 15.7 242 9.4 100930 42
2009-12-08 09:33:02 51°21.779 2°51.261 16.5 283 9.4 100930 43
2009-12-08 09:33:08 51°21.797 2°51.261 15.2 241 9.4 100960 42
2009-12-08 09:33:13 51°21.812 2°51.26 14.5 280 9.4 100960 42
2009-12-08 09:33:18 51°21.827 2°51.261 16.6 243 9.4 100930 44
2009-12-08 09:33:23 51°21.842 2°51.261 15.5 279 9.4 100930 44
2009-12-08 09:33:28 51°21.857 2°51.26 14.1 245 9.4 100930 44
2009-12-08 09:33:33 51°21.871 2°51.262 13.9 285 9.4 100940 42
2009-12-08 09:33:38 51°21.886 2°51.261 13.3 243 9.4 100930 42
2009-12-08 09:33:43 51°21.901 2°51.262 14.4 284 9.4 100930 42
2009-12-08 09:33:48 51°21.915 2°51.262 14.5 242 9.4 100930 42
2009-12-08 09:33:53 51°21.93 2°51.262 12.4 282 9.4 100930 43
2009-12-08 09:33:58 51°21.944 2°51.264 15.3 249 9.4 100940 42
2009-12-08 09:34:03 51°21.959 2°51.265 12.7 286 9.4 100940 42
2009-12-08 09:34:08 51°21.973 2°51.268 11.5 249 9.4 100940 42
2009-12-08 09:34:13 51°21.987 2°51.272 10.7 284 9.4 100940 42
2009-12-08 09:34:18 51°22.001 2°51.278 10.3 251 9.4 100940 44
2009-12-08 09:34:23 51°22.015 2°51.281 11.8 277 9.4 100940 44
2009-12-08 09:34:28 51°22.029 2°51.288 11.3 250 9.4 100960 43
2009-12-08 09:34:33 51°22.044 2°51.294 11.3 282 9.4 100960 43
2009-12-08 09:34:38 51°22.058 2°51.301 11.3 246 9.4 100970 42
2009-12-08 09:34:43 51°22.072 2°51.308 11.5 287 9.4 100970 42
2009-12-08 09:34:48 51°22.086 2°51.316 12.3 253 9.4 100960 44
2009-12-08 09:34:53 51°22.1 2°51.324 12.3 283 9.4 100960 44
2009-12-08 09:34:58 51°22.114 2°51.331 10.9 251 9.4 100970 43
2009-12-08 09:35:03 51°22.128 2°51.341 13.4 280 9.4 100970 43
2009-12-08 09:35:08 51°22.142 2°51.348 14.5 259 9.4 100970 42
2009-12-08 09:35:13 51°22.156 2°51.356 11.9 284 9.4 100970 42
2009-12-08 09:35:18 51°22.17 2°51.366 14.2 259 9.4 100960 42
2009-12-08 09:35:23 51°22.184 2°51.374 13.2 280 9.4 100960 42
2009-12-08 09:35:28 51°22.198 2°51.383 10.3 256 9.4 100970 43
2009-12-08 09:35:33 51°22.212 2°51.39 11 278 9.4 100970 43
2009-12-08 09:35:38 51°22.227 2°51.399 11.8 249 9.4 100960 42
2009-12-08 09:35:43 51°22.24 2°51.409 14.6 280 9.4 100960 42
2009-12-08 09:35:48 51°22.254 2°51.416 11.3 253 9.4 100970 44
2009-12-08 09:35:53 51°22.268 2°51.426 13.1 279 9.4 100970 44
2009-12-08 09:35:58 51°22.283 2°51.432 10.7 251 9.4 100980 43
2009-12-08 09:36:02 51°22.293 2°51.442 12.3 278 9.4 100980 43
2009-12-08 09:36:08 51°22.31 2°51.449 10 251 9.4 100980 43
2009-12-08 09:36:13 51°22.323 2°51.46 12.1 282 9.5 100960 43
2009-12-08 09:36:18 51°22.337 2°51.467 12 250 9.4 100960 45
2009-12-08 09:36:23 51°22.351 2°51.476 13.4 286 9.4 100960 45
2009-12-08 09:36:28 51°22.365 2°51.482 10.2 249 9.5 100970 43
2009-12-08 09:36:33 51°22.378 2°51.493 10.8 283 9.5 100970 43
2009-12-08 09:36:38 51°22.393 2°51.497 10.3 249 9.5 100970 45
2009-12-08 09:36:43 51°22.407 2°51.507 11.5 286 9.5 100970 45
2009-12-08 09:36:48 51°22.421 2°51.515 12.8 249 9.5 100970 42
2009-12-08 09:36:53 51°22.435 2°51.521 13.7 284 9.5 100970 42
2009-12-08 09:36:58 51°22.448 2°51.531 12.6 249 9.5 100970 42
2009-12-08 09:37:02 51°22.46 2°51.535 10.2 282 9.5 100960 44
2009-12-08 09:37:08 51°22.476 2°51.545 10.5 250 9.5 100960 42
2009-12-08 09:37:13 51°22.49 2°51.554 13.4 285 9.5 100960 42
2009-12-08 09:37:18 51°22.504 2°51.559 12.4 255 9.5 100970 42
2009-12-08 09:37:23 51°22.518 2°51.569 13 287 9.5 100970 42
2009-12-08 09:37:28 51°22.532 2°51.573 12.6 244 9.5 100990 42
2009-12-08 09:37:33 51°22.546 2°51.584 12 278 9.5 100990 42
2009-12-08 09:37:38 51°22.56 2°51.591 11.3 246 9.5 100960 45
2009-12-08 09:37:43 51°22.574 2°51.597 11.7 283 9.5 100960 45
2009-12-08 09:37:48 51°22.588 2°51.606 11.2 248 9.5 100960 44
2009-12-08 09:37:53 51°22.602 2°51.612 11.3 281 9.5 100960 44
2009-12-08 09:37:58 51°22.616 2°51.622 14.2 250 9.5 100960 44
2009-12-08 09:38:02 51°22.627 2°51.626 10.8 279 9.5 100970 45
2009-12-08 09:38:08 51°22.644 2°51.636 12.7 251 9.5 100970 45
2009-12-08 09:38:13 51°22.658 2°51.642 11 279 9.5 100980 45
2009-12-08 09:38:18 51°22.672 2°51.651 12.6 248 9.5 100980 44
2009-12-08 09:38:23 51°22.686 2°51.657 12.3 284 9.5 100980 44
2009-12-08 09:38:28 51°22.7 2°51.665 12.5 249 9.5 100970 42
2009-12-08 09:38:33 51°22.715 2°51.672 10 278 9.5 100970 42
2009-12-08 09:38:38 51°22.729 2°51.679 11.1 245 9.5 100980 43
2009-12-08 09:38:43 51°22.743 2°51.688 12.5 282 9.5 100980 43
2009-12-08 09:38:48 51°22.757 2°51.694 12 247 9.5 100970 43
2009-12-08 09:38:53 51°22.771 2°51.704 14.4 283 9.5 100970 43
2009-12-08 09:38:58 51°22.786 2°51.709 13.9 248 9.5 100980 45
2009-12-08 09:39:03 51°22.8 2°51.717 13.4 282 9.5 100980 45
2009-12-08 09:39:08 51°22.814 2°51.724 14.4 249 9.5 100980 45
2009-12-08 09:39:13 51°22.828 2°51.731 12 282 9.5 100970 43
2009-12-08 09:39:18 51°22.842 2°51.738 13.8 253 9.5 100970 45
2009-12-08 09:39:23 51°22.857 2°51.745 11.4 278 9.5 100970 45
2009-12-08 09:39:28 51°22.871 2°51.752 14.4 247 9.4 100970 45
2009-12-08 09:39:33 51°22.885 2°51.758 13.7 282 9.4 100970 45
2009-12-08 09:39:38 51°22.899 2°51.767 14.2 247 9.4 100970 44
2009-12-08 09:39:43 51°22.914 2°51.774 12 249 9.4 100970 44
2009-12-08 09:39:48 51°22.928 2°51.78 10.9 249 9.4 100970 45
2009-12-08 09:39:53 51°22.942 2°51.789 11.9 277 9.4 100970 45
2009-12-08 09:39:58 51°22.957 2°51.795 11.3 245 9.4 100970 45
2009-12-08 09:40:02 51°22.968 2°51.802 12.5 278 9.4 100970 43
2009-12-08 09:40:08 51°22.985 2°51.811 14.5 249 9.4 100970 43
2009-12-08 09:40:13 51°22.999 2°51.817 11 286 9.4 100960 46
2009-12-08 09:40:18 51°23.012 2°51.827 12.8 246 9.4 100980 43
2009-12-08 09:40:22 51°23.024 2°51.83 10.6 282 9.4 100980 43
2009-12-08 09:40:28 51°23.04 2°51.841 12.3 245 9.4 100980 43
2009-12-08 09:40:33 51°23.054 2°51.846 10.7 282 9.4 100970 46
2009-12-08 09:40:38 51°23.068 2°51.855 12.9 247 9.4 100980 45
2009-12-08 09:40:43 51°23.081 2°51.866 13.9 282 9.4 100980 45
2009-12-08 09:40:48 51°23.096 2°51.871 13 246 9.4 100970 46
2009-12-08 09:40:53 51°23.109 2°51.88 11.9 281 9.4 100970 46
2009-12-08 09:40:58 51°23.123 2°51.886 12.2 245 9.4 100980 45
2009-12-08 09:41:02 51°23.135 2°51.893 13.7 282 9.4 100980 45
2009-12-08 09:41:08 51°23.151 2°51.901 13 247 9.4 100960 44
2009-12-08 09:41:13 51°23.166 2°51.909 14.1 280 9.4 100960 44
2009-12-08 09:41:18 51°23.18 2°51.917 14 245 9.4 100970 46
2009-12-08 09:41:23 51°23.194 2°51.924 12.3 282 9.4 100970 46
2009-12-08 09:41:28 51°23.207 2°51.933 14 245 9.4 100970 46
2009-12-08 09:41:33 51°23.222 2°51.937 12.5 283 9.4 100960 46
2009-12-08 09:41:38 51°23.235 2°51.947 14.1 247 9.4 100960 46
2009-12-08 09:41:42 51°23.247 2°51.951 14 282 9.4 100970 43
2009-12-08 09:41:48 51°23.262 2°51.963 15.8 245 9.4 100970 45
2009-12-08 09:41:53 51°23.276 2°51.97 15.1 282 9.4 100970 45
2009-12-08 09:41:58 51°23.29 2°51.977 13.7 245 9.4 100970 46
2009-12-08 09:42:03 51°23.304 2°51.986 13.6 281 9.4 100970 46
2009-12-08 09:42:08 51°23.318 2°51.992 12.9 244 9.4 101000 45
2009-12-08 09:42:13 51°23.331 2°52.002 14.9 282 9.4 101000 45
2009-12-08 09:42:18 51°23.346 2°52.005 14.1 247 9.4 100970 46
2009-12-08 09:42:22 51°23.357 2°52.014 13.6 285 9.4 100970 46
2009-12-08 09:42:28 51°23.374 2°52.023 14 249 9.4 100970 46
2009-12-08 09:42:33 51°23.388 2°52.029 11.6 278 9.4 100960 44
2009-12-08 09:42:38 51°23.402 2°52.039 15.1 244 9.4 100950 45
2009-12-08 09:42:43 51°23.416 2°52.044 15.9 280 9.4 100950 45
2009-12-08 09:42:48 51°23.43 2°52.05 13.2 246 9.4 100950 45
2009-12-08 09:42:53 51°23.444 2°52.059 15 285 9.4 100960 44
2009-12-08 09:42:58 51°23.459 2°52.064 14.4 246 9.4 100970 44
2009-12-08 09:43:03 51°23.472 2°52.075 14.8 281 9.4 100970 44
2009-12-08 09:43:08 51°23.486 2°52.082 15 249 9.4 100970 44
2009-12-08 09:43:13 51°23.5 2°52.087 11.3 278 9.4 100960 45
2009-12-08 09:43:18 51°23.513 2°52.097 13.9 244 9.4 100960 45
2009-12-08 09:43:23 51°23.528 2°52.101 11.6 282 9.4 100960 44
2009-12-08 09:43:28 51°23.541 2°52.11 13.5 246 9.4 100960 44
2009-12-08 09:43:33 51°23.556 2°52.116 11.4 280 9.4 100950 44
2009-12-08 09:43:38 51°23.569 2°52.124 12.3 245 9.4 100980 45
2009-12-08 09:43:43 51°23.583 2°52.129 13.1 281 9.4 100980 45
2009-12-08 09:43:48 51°23.597 2°52.138 14.3 244 9.4 100980 45
2009-12-08 09:43:53 51°23.611 2°52.143 13.6 286 9.4 100980 45
2009-12-08 09:43:58 51°23.625 2°52.152 13.8 242 9.5 100970 45
2009-12-08 09:44:02 51°23.637 2°52.157 12.2 278 9.5 100970 45
2009-12-08 09:44:08 51°23.653 2°52.164 13.2 242 9.5 100980 46
2009-12-08 09:44:13 51°23.667 2°52.176 17 283 9.5 100980 46
2009-12-08 09:44:18 51°23.682 2°52.179 14.9 247 9.5 100970 44
2009-12-08 09:44:23 51°23.695 2°52.19 16.1 281 9.5 100970 44
2009-12-08 09:44:28 51°23.709 2°52.196 14.4 246 9.5 100970 44
2009-12-08 09:44:33 51°23.723 2°52.203 12.7 282 9.5 100970 44
2009-12-08 09:44:38 51°23.737 2°52.213 14.7 243 9.4 100940 44
2009-12-08 09:44:43 51°23.751 2°52.216 13.3 285 9.4 100940 44
2009-12-08 09:44:48 51°23.765 2°52.226 12.5 241 9.4 100940 44
2009-12-08 09:44:53 51°23.779 2°52.233 14.7 278 9.4 100950 43
2009-12-08 09:44:58 51°23.793 2°52.238 14.6 246 9.4 100980 43
2009-12-08 09:45:03 51°23.807 2°52.247 15.8 286 9.4 100980 43
2009-12-08 09:45:08 51°23.822 2°52.254 15.1 247 9.5 100980 45
2009-12-08 09:45:13 51°23.835 2°52.261 13.9 285 9.5 100980 45
2009-12-08 09:45:18 51°23.848 2°52.271 15.3 242 9.5 100960 43
2009-12-08 09:45:22 51°23.86 2°52.275 13.6 283 9.5 100960 43
2009-12-08 09:45:28 51°23.876 2°52.282 12.4 244 9.5 100960 43
2009-12-08 09:45:33 51°23.89 2°52.29 12.5 279 9.5 100970 43
2009-12-08 09:45:38 51°23.904 2°52.295 13 242 9.5 100970 43
2009-12-08 09:45:43 51°23.918 2°52.303 13.2 286 9.4 100970 43
2009-12-08 09:45:48 51°23.932 2°52.31 13.2 243 9.4 100980 44
2009-12-08 09:45:53 51°23.947 2°52.318 13.3 283 9.4 100980 44
2009-12-08 09:45:58 51°23.961 2°52.324 13.2 244 9.5 100970 46
2009-12-08 09:46:03 51°23.975 2°52.332 13.6 282 9.5 100970 46
2009-12-08 09:46:08 51°23.989 2°52.34 13 244 9.5 100980 43
2009-12-08 09:46:13 51°24.003 2°52.348 11.4 284 9.5 100980 43
2009-12-08 09:46:18 51°24.016 2°52.358 13.2 245 9.5 100970 44
2009-12-08 09:46:23 51°24.03 2°52.366 11.2 279 9.5 100970 44
2009-12-08 09:46:29 51°24.047 2°52.378 12.6 247 9.5 100970 44
2009-12-08 09:46:33 51°24.057 2°52.387 12.7 286 9.5 100980 45
2009-12-08 09:46:38 51°24.07 2°52.398 14 249 9.5 100980 43
2009-12-08 09:46:43 51°24.084 2°52.407 13.2 283 9.5 100980 43
2009-12-08 09:46:48 51°24.096 2°52.418 14.2 251 9.5 100970 46
2009-12-08 09:46:53 51°24.109 2°52.43 15 284 9.5 100970 46
2009-12-08 09:46:58 51°24.124 2°52.437 12.4 252 9.5 100970 44
2009-12-08 09:47:03 51°24.137 2°52.447 12.2 279 9.5 100970 44
2009-12-08 09:47:08 51°24.151 2°52.455 11.8 248 9.5 100970 44
2009-12-08 09:47:13 51°24.165 2°52.461 13.3 283 9.6 100980 43
2009-12-08 09:47:18 51°24.179 2°52.469 15.9 242 9.5 100960 43
2009-12-08 09:47:23 51°24.193 2°52.473 14.4 284 9.5 100960 43
2009-12-08 09:47:28 51°24.207 2°52.476 13 240 9.5 100980 42
2009-12-08 09:47:33 51°24.222 2°52.48 15.2 282 9.5 100980 42
2009-12-08 09:47:38 51°24.237 2°52.48 13.3 245 9.6 100980 45
2009-12-08 09:47:43 51°24.251 2°52.484 13.4 282 9.6 100980 45
2009-12-08 09:47:48 51°24.265 2°52.486 14.5 239 9.5 100970 45
2009-12-08 09:47:53 51°24.28 2°52.486 12.9 285 9.5 100970 45
2009-12-08 09:47:58 51°24.294 2°52.487 13.8 31 9.5 100970 45
2009-12-08 09:48:02 51°24.306 2°52.488 14.8 282 9.6 100960 45
2009-12-08 09:48:08 51°24.324 2°52.486 12.2 35 9.6 100970 45
2009-12-08 09:48:13 51°24.338 2°52.489 13.7 279 9.6 100970 45
2009-12-08 09:48:18 51°24.353 2°52.488 13.9 237 9.6 100970 45
2009-12-08 09:48:23 51°24.367 2°52.488 14.5 281 9.6 100970 45
2009-12-08 09:48:28 51°24.382 2°52.488 13.9 239 9.6 100970 44
2009-12-08 09:48:33 51°24.397 2°52.487 13.2 283 9.6 100970 44
2009-12-08 09:48:38 51°24.411 2°52.489 15.2 238 9.6 100960 43
2009-12-08 09:48:43 51°24.425 2°52.489 12.3 281 9.6 100960 43
2009-12-08 09:48:48 51°24.44 2°52.49 12.6 235 9.6 100960 45
2009-12-08 09:48:53 51°24.454 2°52.491 13.5 280 9.6 100960 45
2009-12-08 09:48:58 51°24.469 2°52.493 15 238 9.6 100960 45
2009-12-08 09:49:02 51°24.48 2°52.494 15.5 283 9.6 100980 45
2009-12-08 09:49:08 51°24.498 2°52.496 15.7 239 9.6 100960 43
2009-12-08 09:49:13 51°24.513 2°52.498 15.3 282 9.6 100960 43
2009-12-08 09:49:18 51°24.527 2°52.5 13 236 9.6 100960 44
2009-12-08 09:49:23 51°24.542 2°52.5 14.5 287 9.6 100960 44
2009-12-08 09:49:28 51°24.556 2°52.505 15.1 235 9.6 100960 44
2009-12-08 09:49:33 51°24.57 2°52.505 12.3 278 9.6 100950 45
2009-12-08 09:49:38 51°24.585 2°52.508 11.7 35 9.6 100970 43
2009-12-08 09:49:43 51°24.6 2°52.512 14.3 279 9.6 100970 43
2009-12-08 09:49:48 51°24.614 2°52.513 14.3 238 9.6 100980 43
2009-12-08 09:49:53 51°24.628 2°52.516 14.9 284 9.6 100980 43
2009-12-08 09:49:58 51°24.643 2°52.518 17.5 32 9.6 100970 43
2009-12-08 09:50:02 51°24.654 2°52.52 16.8 282 9.6 100970 43
2009-12-08 09:50:08 51°24.672 2°52.525 17 33 9.6 100960 45
2009-12-08 09:50:13 51°24.686 2°52.525 15 283 9.6 100960 45
2009-12-08 09:50:18 51°24.701 2°52.531 14.8 31 9.6 100960 45
2009-12-08 09:50:23 51°24.715 2°52.531 15.3 280 9.6 100960 45
2009-12-08 09:50:28 51°24.729 2°52.536 17.7 241 9.6 100960 45
2009-12-08 09:50:33 51°24.744 2°52.536 14.3 283 9.6 100950 44
2009-12-08 09:50:38 51°24.758 2°52.54 14.3 240 9.6 100950 44
2009-12-08 09:50:43 51°24.772 2°52.542 15.9 246 9.6 100960 43
2009-12-08 09:50:48 51°24.787 2°52.545 13.9 240 9.6 100960 43
2009-12-08 09:50:53 51°24.801 2°52.547 14.5 278 9.6 100960 44
2009-12-08 09:50:58 51°24.816 2°52.549 15.6 238 9.6 100960 44
2009-12-08 09:51:03 51°24.831 2°52.552 15.2 278 9.6 100960 44
2009-12-08 09:51:08 51°24.846 2°52.555 16.5 238 9.6 100960 44
2009-12-08 09:51:13 51°24.86 2°52.557 15.4 284 9.6 100950 44
2009-12-08 09:51:18 51°24.875 2°52.561 16.5 240 9.6 100950 44
2009-12-08 09:51:23 51°24.889 2°52.561 15 282 9.6 100970 44
2009-12-08 09:51:28 51°24.904 2°52.565 13.4 237 9.6 100970 44
2009-12-08 09:51:33 51°24.918 2°52.566 14.2 282 9.6 100980 44
2009-12-08 09:51:38 51°24.933 2°52.569 15.8 236 9.6 100980 44
2009-12-08 09:51:43 51°24.948 2°52.571 14 24 9.6 100970 45
2009-12-08 09:51:48 51°24.962 2°52.574 15.3 35 9.6 100970 45
2009-12-08 09:51:53 51°24.977 2°52.576 14.3 282 9.6 100980 42
2009-12-08 09:51:58 51°24.992 2°52.578 15.6 35 9.6 100980 42
2009-12-08 09:52:03 51°25.006 2°52.583 15.6 279 9.6 100970 42
2009-12-08 09:52:08 51°25.021 2°52.582 14.1 233 9.6 100970 42
2009-12-08 09:52:13 51°25.035 2°52.587 15.1 281 9.6 100970 43
2009-12-08 09:52:18 51°25.049 2°52.589 15.2 34 9.6 100970 43
2009-12-08 09:52:23 51°25.064 2°52.59 14 278 9.6 100970 44
2009-12-08 09:52:28 51°25.078 2°52.592 15 237 9.6 100970 44
2009-12-08 09:52:33 51°25.093 2°52.593 14.8 281 9.6 100960 43
2009-12-08 09:52:38 51°25.107 2°52.596 14.4 35 9.6 100960 43
2009-12-08 09:52:43 51°25.122 2°52.6 15.5 284 9.6 100970 43
2009-12-08 09:52:48 51°25.137 2°52.601 15.9 236 9.6 100970 43
2009-12-08 09:52:53 51°25.151 2°52.607 15.8 279 9.6 100960 43
2009-12-08 09:52:58 51°25.166 2°52.607 14.5 238 9.6 100960 43
2009-12-08 09:53:03 51°25.18 2°52.613 15.2 285 9.6 100970 44
2009-12-08 09:53:08 51°25.194 2°52.614 13.9 239 9.6 100970 44
2009-12-08 09:53:13 51°25.209 2°52.619 15.2 281 9.6 100970 43
2009-12-08 09:53:18 51°25.224 2°52.621 13.9 238 9.6 100970 43
2009-12-08 09:53:23 51°25.238 2°52.624 11.7 280 9.6 100960 44
2009-12-08 09:53:29 51°25.256 2°52.629 14 239 9.6 100960 44
2009-12-08 09:53:33 51°25.268 2°52.629 12.8 283 9.6 100960 44
2009-12-08 09:53:38 51°25.282 2°52.635 13.5 237 9.6 100960 44
2009-12-08 09:53:43 51°25.297 2°52.635 12.8 21 9.6 100960 44
2009-12-08 09:53:48 51°25.311 2°52.641 15.6 241 9.6 100960 44
2009-12-08 09:53:53 51°25.326 2°52.642 13 282 9.6 100980 44
2009-12-08 09:53:58 51°25.34 2°52.646 11.9 31 9.6 100980 44
2009-12-08 09:54:03 51°25.354 2°52.649 12.6 283 9.7 100980 44
2009-12-08 09:54:08 51°25.369 2°52.652 13.9 31 9.7 100980 44
2009-12-08 09:54:13 51°25.383 2°52.655 12.5 284 9.7 100970 45
2009-12-08 09:54:18 51°25.398 2°52.661 16.4 241 9.7 100970 45
2009-12-08 09:54:23 51°25.412 2°52.665 14.6 280 9.7 100980 45
2009-12-08 09:54:28 51°25.426 2°52.667 12.7 236 9.7 100980 45
2009-12-08 09:54:33 51°25.44 2°52.672 15.1 286 9.7 100980 42
2009-12-08 09:54:38 51°25.455 2°52.676 15 32 9.7 100980 42
2009-12-08 09:54:43 51°25.469 2°52.68 16 21 9.8 100980 43
2009-12-08 09:54:48 51°25.483 2°52.682 13.8 238 9.8 100980 43
2009-12-08 09:54:53 51°25.498 2°52.687 13.3 286 9.7 100960 44
2009-12-08 09:54:58 51°25.512 2°52.691 14.5 242 9.7 100960 44
2009-12-08 09:55:03 51°25.525 2°52.695 14.7 284 9.7 100980 44
2009-12-08 09:55:08 51°25.54 2°52.7 14.6 244 9.7 100980 44
2009-12-08 09:55:13 51°25.554 2°52.703 12.7 286 9.7 100970 43
2009-12-08 09:55:18 51°25.568 2°52.708 14.2 242 9.7 100970 43
2009-12-08 09:55:23 51°25.582 2°52.71 12.4 278 9.7 100980 44
2009-12-08 09:55:29 51°25.599 2°52.716 12.3 238 9.7 100980 44
2009-12-08 09:55:33 51°25.611 2°52.718 12.4 283 9.7 100960 44
2009-12-08 09:55:38 51°25.625 2°52.722 14.2 237 9.7 100960 44
2009-12-08 09:55:43 51°25.64 2°52.727 13.7 27 9.7 100970 44
2009-12-08 09:55:48 51°25.654 2°52.728 12.1 239 9.7 100970 44
2009-12-08 09:55:53 51°25.668 2°52.735 13.2 283 9.7 100970 42
2009-12-08 09:55:58 51°25.682 2°52.738 13.4 242 9.7 100970 42
2009-12-08 09:56:03 51°25.696 2°52.743 14.8 282 9.7 100980 44
2009-12-08 09:56:08 51°25.711 2°52.744 13.3 240 9.7 100980 44
2009-12-08 09:56:13 51°25.725 2°52.751 13.3 279 9.7 100970 43
2009-12-08 09:56:18 51°25.74 2°52.752 12.7 240 9.7 100970 43
2009-12-08 09:56:23 51°25.754 2°52.758 13.7 283 9.7 100990 43
2009-12-08 09:56:28 51°25.768 2°52.76 12.5 240 9.7 100990 43
2009-12-08 09:56:33 51°25.783 2°52.764 15.2 284 9.7 100960 45
2009-12-08 09:56:38 51°25.797 2°52.769 14.2 34 9.7 100960 45
2009-12-08 09:56:43 51°25.812 2°52.772 14.5 26 9.8 100970 42
2009-12-08 09:56:48 51°25.827 2°52.776 14.3 31 9.8 100970 42
2009-12-08 09:56:53 51°25.841 2°52.781 14 283 9.8 100980 44
2009-12-08 09:56:58 51°25.856 2°52.784 16.6 238 9.8 100980 44
2009-12-08 09:57:03 51°25.87 2°52.79 14.2 282 9.8 100970 44
2009-12-08 09:57:08 51°25.884 2°52.794 14.3 239 9.8 100970 44
2009-12-08 09:57:13 51°25.899 2°52.797 14.4 281 9.7 100970 43
2009-12-08 09:57:18 51°25.913 2°52.801 15 240 9.7 100970 43
2009-12-08 09:57:23 51°25.927 2°52.805 14.1 281 9.7 100980 42
2009-12-08 09:57:29 51°25.945 2°52.812 15.8 242 9.7 100980 42
2009-12-08 09:57:33 51°25.956 2°52.812 13.4 285 9.7 100980 44
2009-12-08 09:57:38 51°25.97 2°52.819 13.4 237 9.7 100980 44
2009-12-08 09:57:43 51°25.984 2°52.82 14.4 23 9.7 100970 43
2009-12-08 09:57:48 51°25.998 2°52.828 15.5 243 9.7 100970 43
2009-12-08 09:57:53 51°26.012 2°52.83 13.2 278 9.7 100970 44
2009-12-08 09:57:58 51°26.026 2°52.834 14.4 242 9.7 100970 44
2009-12-08 09:58:03 51°26.04 2°52.841 15.4 284 9.7 100980 43
2009-12-08 09:58:08 51°26.054 2°52.842 14.3 240 9.7 100980 43
2009-12-08 09:58:13 51°26.068 2°52.849 14.4 281 9.7 101000 44
2009-12-08 09:58:18 51°26.082 2°52.85 13.9 242 9.7 101000 44
2009-12-08 09:58:23 51°26.096 2°52.854 15.2 278 9.7 100980 43
2009-12-08 09:58:28 51°26.11 2°52.858 13.5 242 9.7 100980 43
2009-12-08 09:58:33 51°26.125 2°52.86 12.8 282 9.7 100960 43
2009-12-08 09:58:38 51°26.139 2°52.863 13.1 240 9.7 100960 43
2009-12-08 09:58:43 51°26.154 2°52.867 14.2 23 9.7 100960 44
2009-12-08 09:58:48 51°26.168 2°52.869 12.2 236 9.7 100960 44
2009-12-08 09:58:53 51°26.182 2°52.875 15 287 9.7 100970 44
2009-12-08 09:58:58 51°26.197 2°52.875 13.4 242 9.7 100970 44
2009-12-08 09:59:03 51°26.211 2°52.882 14.8 280 9.7 100980 44
2009-12-08 09:59:08 51°26.226 2°52.883 13.8 242 9.7 100980 44
2009-12-08 09:59:13 51°26.24 2°52.888 14.7 286 9.7 100990 43
2009-12-08 09:59:18 51°26.255 2°52.891 11.3 240 9.7 100990 43
2009-12-08 09:59:23 51°26.269 2°52.894 12.8 278 9.7 100970 44
2009-12-08 09:59:28 51°26.283 2°52.899 13.1 243 9.7 100970 44
2009-12-08 09:59:33 51°26.298 2°52.902 11 279 9.7 100970 42
2009-12-08 09:59:38 51°26.313 2°52.905 11.7 237 9.7 100970 42
2009-12-08 09:59:43 51°26.327 2°52.91 12.7 22 9.7 100970 44
2009-12-08 09:59:48 51°26.341 2°52.914 16.1 33 9.7 100970 44
2009-12-08 09:59:53 51°26.356 2°52.916 14.5 281 9.8 100990 43
2009-12-08 09:59:58 51°26.37 2°52.922 14.4 237 9.8 100990 43
2009-12-08 10:00:03 51°26.385 2°52.924 13.8 277 9.8 100990 43
2009-12-08 10:00:08 51°26.399 2°52.928 15.2 236 9.8 100990 43
2009-12-08 10:00:13 51°26.413 2°52.932 16 278 9.8 100990 43
2009-12-08 10:00:18 51°26.427 2°52.934 11.4 240 9.8 100990 43
2009-12-08 10:00:23 51°26.441 2°52.94 14.6 282 9.8 100980 44
2009-12-08 10:00:28 51°26.455 2°52.944 12 235 9.8 100980 44
2009-12-08 10:00:33 51°26.469 2°52.947 12.7 283 9.7 100990 43